DW7027 Weather Reports


Display with metric or nautical units.
time (UTC)temp
F
wind
direction
speed
MPH
gust
MPH
rain 1hr
in
rain 24hr
in
rain mn
in
humidity
%
barometer
mb
20220630063659 74 355 2.0 6.0 0.00 0.00 0.00 71 1010.0
20220630062658 73 339 2.0 7.0 0.00 0.00 0.00 72 1010.0
20220630061658 72 327 2.0 6.0 0.00 0.00 0.00 73 1010.0
20220630060657 72 357 2.0 6.0 0.00 0.00 0.00 75 1010.0
20220630055658 71 292 3.0 6.0 0.00 0.00 0.00 77 1010.0
20220630054657 70 286 6.0 9.0 0.00 0.00 0.00 79 1009.0
20220630053658 69 44 3.0 5.0 0.00 0.00 0.00 80 1009.0
20220630052657 69 45 2.0 6.0 0.00 0.00 0.00 81 1009.0
20220630051657 68 39 3.0 5.0 0.00 0.00 0.00 82 1010.0
20220630050657 68 14 2.0 5.0 0.00 0.00 0.00 82 1010.0
20220630045659 68 52 2.0 3.0 0.00 0.00 0.00 83 1010.0
20220630044658 68 11 2.0 5.0 0.00 0.00 0.00 83 1010.0
20220630043659 67 7 3.0 6.0 0.00 0.00 0.00 84 1010.0
20220630042658 67 45 3.0 6.0 0.00 0.00 0.00 84 1010.0
20220630041658 66 25 3.0 5.0 0.00 0.00 0.00 84 1010.0
20220630040658 66 42 3.0 3.0 0.00 0.00 0.00 85 1010.0
20220630035657 66 22 1.0 3.0 0.00 0.00 0.00 84 1010.0
20220630034657 65 29 1.0 2.0 0.00 0.00 0.00 84 1010.0
20220630033658 65 334 2.0 5.0 0.00 0.00 0.00 85 1009.0
20220630032658 65 22 2.0 3.0 0.00 0.00 0.00 84 1009.0
20220630031658 65 344 1.0 2.0 0.00 0.00 0.00 83 1009.0
20220630030657 66 22 2.0 3.0 0.00 0.00 0.00 83 1009.0
20220630025658 66 308 2.0 6.0 0.00 0.00 0.00 82 1009.0
20220630024658 66 307 2.0 7.0 0.00 0.00 0.00 82 1009.0
20220630023658 66 284 4.0 6.0 0.00 0.00 0.00 82 1010.0
20220630022659 66 267 5.0 6.0 0.00 0.00 0.00 81 1010.0
20220630021657 66 288 2.0 3.0 0.00 0.00 0.00 80 1010.0
20220630020657 66 254 2.0 6.0 0.00 0.00 0.00 79 1010.0
20220630015658 66 300 3.0 6.0 0.00 0.00 0.00 78 1010.0
20220630014658 67 288 3.0 6.0 0.00 0.00 0.00 77 1010.0
20220630013658 67 287 5.0 7.0 0.00 0.00 0.00 77 1010.0
20220630012658 67 303 5.0 8.0 0.00 0.00 0.00 76 1010.0
20220630011658 67 276 2.0 3.0 0.00 0.00 0.00 74 1010.0
20220630010657 68 291 2.0 5.0 0.00 0.00 0.00 74 1010.0
20220630005658 68 230 3.0 5.0 0.00 0.00 0.00 73 1010.0
20220630004658 68 232 2.0 2.0 0.00 0.00 0.00 72 1009.0
20220630003658 69 277 0.0 2.0 0.00 0.00 0.00 71 1008.0
20220630002658 69 294 2.0 3.0 0.00 0.00 0.00 71 1008.0
20220630001658 69 34 1.0 6.0 0.00 0.00 0.00 72 1008.0
20220630000658 69 0 3.0 6.0 0.00 0.00 0.00 72 1009.0
20220629235659 69 3 5.0 8.0 0.00 0.00 0.00 72 1009.0
20220629234658 70 6 1.0 8.0 0.00 0.00 0.00 71 1010.0
20220629233658 70 319 5.0 7.0 0.00 0.00 0.00 69 1010.0
20220629232658 70 63 3.0 6.0 0.00 0.00 0.00 68 1010.0
20220629231659 70 2 4.0 7.0 0.00 0.00 0.00 69 1010.0
20220629230659 70 357 2.0 7.0 0.00 0.00 0.00 67 1010.0
20220629225658 71 328 3.0 15.0 0.00 0.00 0.00 66 1010.0
20220629224659 71 289 7.0 15.0 0.00 0.00 0.00 66 1010.0
20220629223659 71 288 10.0 20.0 0.00 0.00 0.00 64 1010.0
20220629222659 72 292 12.0 20.0 0.00 0.00 0.00 61 1010.0
20220629221659 73 293 10.0 18.0 0.00 0.00 0.00 57 1010.0
20220629220700 74 296 11.0 24.0 0.00 0.00 0.00 54 1010.0
20220629215658 75 279 13.0 21.0 0.00 0.00 0.00 55 1010.0
20220629214658 76 274 6.0 13.0 0.00 0.00 0.00 67 1008.0
20220629213659 76 316 6.0 10.0 0.00 0.00 0.00 68 1007.0
20220629212659 77 301 6.0 12.0 0.00 0.00 0.00 69 1007.0
20220629211659 77 284 6.0 12.0 0.00 0.00 0.00 68 1007.0
20220629210658 77 272 8.0 14.0 0.00 0.00 0.00 68 1008.0
20220629205658 78 292 8.0 14.0 0.00 0.00 0.00 68 1008.0
20220629204659 78 285 7.0 12.0 0.00 0.00 0.00 67 1008.0
20220629203658 78 281 3.0 6.0 0.00 0.00 0.00 65 1007.0
20220629202659 78 281 5.0 7.0 0.00 0.00 0.00 65 1007.0
20220629201658 79 281 3.0 9.0 0.00 0.00 0.00 65 1006.0
20220629200659 79 272 3.0 5.0 0.00 0.00 0.00 66 1006.0
20220629195659 79 93 6.0 8.0 0.00 0.00 0.00 64 1006.0
20220629194659 79 189 4.0 10.0 0.00 0.00 0.00 64 1006.0
20220629193659 79 39 3.0 6.0 0.00 0.00 0.00 62 1006.0
20220629192659 79 56 5.0 8.0 0.00 0.00 0.00 62 1006.0
20220629191658 80 49 5.0 8.0 0.00 0.00 0.00 61 1005.0
20220629190659 80 41 5.0 6.0 0.00 0.00 0.00 60 1005.0
20220629185658 81 0 3.0 6.0 0.00 0.00 0.00 60 1005.0
20220629184659 82 9 3.0 6.0 0.00 0.00 0.00 58 1006.0
20220629183700 82 347 2.0 8.0 0.00 0.00 0.00 54 1006.0
20220629182659 83 32 5.0 7.0 0.00 0.00 0.00 53 1006.0
20220629181658 84 18 5.0 8.0 0.00 0.00 0.00 48 1006.0
20220629180659 85 332 3.0 5.0 0.00 0.00 0.00 45 1006.0
20220629175659 90 90 3.0 2.0 0.00 0.00 0.00 31 1006.0
20220629174659 90 90 3.0 2.0 0.00 0.00 0.00 31 1006.0
20220629173659 90 90 3.0 2.0 0.00 0.00 0.00 31 1006.0
20220629172659 90 90 3.0 2.0 0.00 0.00 0.00 31 1006.0
20220629171659 90 90 3.0 2.0 0.00 0.00 0.00 31 1006.0
20220629170659 90 90 3.0 2.0 0.00 0.00 0.00 31 1006.0
20220629165659 90 90 3.0 2.0 0.00 0.00 0.00 31 1006.0
20220629164659 90 90 3.0 5.0 0.00 0.00 0.00 31 1006.0
20220629163658 90 108 3.0 6.0 0.00 0.00 0.00 31 1006.0
20220629162659 91 123 2.0 7.0 0.00 0.00 0.00 30 1006.0
20220629161700 91 140 3.0 6.0 0.00 0.00 0.00 30 1006.0
20220629160659 91 114 4.0 6.0 0.00 0.00 0.00 30 1006.0
20220629155659 92 86 3.0 6.0 0.00 0.00 0.00 30 1006.0
20220629154659 92 129 3.0 6.0 0.00 0.00 0.00 29 1007.0
20220629153659 92 135 3.0 7.0 0.00 0.00 0.00 29 1007.0
20220629152659 93 135 7.0 10.0 0.00 0.00 0.00 29 1007.0
20220629151659 93 146 6.0 10.0 0.00 0.00 0.00 29 1006.0
20220629150700 93 148 7.0 10.0 0.00 0.00 0.00 28 1007.0
20220629145659 94 229 5.0 12.0 0.00 0.00 0.00 28 1007.0
20220629144659 94 169 9.0 14.0 0.00 0.00 0.00 27 1007.0
20220629143659 94 187 4.0 10.0 0.00 0.00 0.00 28 1007.0
20220629142701 88 96 3.0 6.0 0.00 0.00 0.00 41 1008.9
20220629141700 88 225 5.0 7.0 0.00 0.00 0.00 41 1012.0
20220629140659 88 112 5.0 9.0 0.00 0.00 0.00 41 1012.0
20220629135700 88 130 5.0 9.0 0.00 0.00 0.00 41 1011.0
20220629134659 88 76 6.0 8.0 0.00 0.00 0.00 41 1011.0
20220629133659 88 118 3.0 6.0 0.00 0.00 0.00 41 1011.0
20220629132700 88 26 2.0 7.0 0.00 0.00 0.00 41 1012.0
20220629131700 88 38 2.0 7.0 0.00 0.00 0.00 41 1012.0
20220629130700 88 37 5.0 7.0 0.00 0.00 0.00 41 1012.0
20220629125659 88 117 4.0 10.0 0.00 0.00 0.00 41 1012.0
20220629124700 88 129 3.0 6.0 0.00 0.00 0.00 41 1012.0
20220629123659 88 129 3.0 7.0 0.00 0.00 0.00 41 1012.0
20220629122659 88 150 4.0 8.0 0.00 0.00 0.00 41 1013.0
20220629121700 88 105 6.0 8.0 0.00 0.00 0.00 41 1013.0
20220629120700 88 85 6.0 8.0 0.00 0.00 0.00 41 1013.0
20220629115700 88 169 3.0 9.0 0.00 0.00 0.00 41 1014.0
20220629114700 88 56 5.0 10.0 0.00 0.00 0.00 41 1014.0
20220629113700 88 45 7.0 9.0 0.00 0.00 0.00 41 1014.0
20220629112659 88 85 5.0 9.0 0.00 0.00 0.00 41 1014.0
20220629111701 88 103 5.0 6.0 0.00 0.00 0.00 41 1014.0
20220629110700 88 131 4.0 7.0 0.00 0.00 0.00 41 1014.0
20220629105700 88 34 5.0 8.0 0.00 0.00 0.00 41 1014.0
20220629104700 88 28 3.0 6.0 0.00 0.00 0.00 41 1014.0
20220629103700 88 329 2.0 6.0 0.00 0.00 0.00 44 1014.0
20220629102700 88 3 5.0 6.0 0.00 0.00 0.00 44 1014.0
20220629101701 88 315 2.0 6.0 0.00 0.00 0.00 44 1014.7
20220629100700 88 0 3.0 5.0 0.00 0.00 0.00 46 1015.0
20220629095700 87 315 3.0 3.0 0.00 0.00 0.00 43 1015.0
20220629094700 87 0 2.0 5.0 0.00 0.00 0.00 43 1015.0
20220629093700 87 356 2.0 5.0 0.00 0.00 0.00 42 1015.0
20220629092700 87 0 2.0 6.0 0.00 0.00 0.00 46 1015.0
20220629091659 87 45 3.0 6.0 0.00 0.00 0.00 45 1015.0
20220629090659 86 49 4.0 5.0 0.00 0.00 0.00 47 1015.0
20220629085700 86 135 2.0 3.0 0.00 0.00 0.00 47 1015.0
20220629084700 86 0 1.0 3.0 0.00 0.00 0.00 47 1015.0
20220629083700 85 225 1.0 6.0 0.00 0.00 0.00 47 1015.0
20220629082700 85 31 5.0 7.0 0.00 0.00 0.00 51 1015.0
20220629081700 82 61 3.0 5.0 0.00 0.00 0.00 55 1015.0
20220629080659 82 65 1.0 6.0 0.00 0.00 0.00 55 1015.0
20220629075700 82 22 3.0 6.0 0.00 0.00 0.00 55 1015.0
20220629074700 80 233 2.0 6.0 0.00 0.00 0.00 59 1015.0
20220629073700 80 44 3.0 6.0 0.00 0.00 0.00 59 1015.0
20220629072700 80 94 3.0 5.0 0.00 0.00 0.00 59 1015.0
20220629071701 79 49 2.0 6.0 0.00 0.00 0.00 61 1015.0
20220629070700 78 120 3.0 5.0 0.00 0.00 0.00 63 1015.0
20220629065700 77 48 5.0 7.0 0.00 0.00 0.00 66 1015.0
20220629064700 76 99 3.0 6.0 0.00 0.00 0.00 66 1015.0